Powrót do katalogu

STARLINK-36632

AktywnyŁącznośćSSO
NORAD 67581·PAYLOAD·🇺🇸 United States

Wystrzelony Jan 25, 2026 z Vandenberg Space Force Base

Loading…

Następne Przeloty (najbliższe 24 godziny)

TLE

ŚwieżeSource: CelesTrak SupGP

Epoka: Sep 14, 2026, 15:51 UTC

1 67581C 26016W   26257.66090278  .00025333  00000+0  78627-3 0  2577
2 67581  97.2855 316.4106 0001319  93.9595 345.4552 15.33431205    16

Śledź STARLINK-36632 w czasie rzeczywistym z AllMySat

Download on the App Store